Vorticity
17 8 -1 -4 -5 0 13 6 3 8 -11 11 8 24 20 12 -5 5 15 5 5 4 5 4 4 3 2 6 6 6 6 6 7 7 7 8 8 7 8 7 7 6 6 5 5 5 5 4 4
-1 -21 -3 1 -18 11 5 9 2 3 10 2 2 8 5 20 15 20 8 6 5 5 6 4 3 3 5 7 7 6 6 7 7 7 7 7 8 8 8 8 8 8 8 8 8 7 7 7 7
0 7 4 25 2 9 8 12 5 10 8 -1 4 1 -0 9 5 10 5 5 2 7 4 3 3 4 8 7 6 7 7 7 8 8 8 8 9 9 9 9 9 9 9 10 10 10 10 11 10
-20 6 9 52 13 11 15 7 5 7 7 -1 3 11 7 3 3 6 7 4 7 4 5 4 6 8 8 6 5 8 7 8 8 9 9 9 9 9 9 8 8 8 8 8 8 8 8 8 9
-11 -2 4 40 23 7 8 10 4 2 8 7 2 -17 9 3 5 5 5 8 6 5 4 7 8 7 7 7 7 7 7 8 9 9 8 8 8 7 8 8 8 7 5 4 3 3 4 5 5
4 -1 -0 -32 20 7 9 8 5 4 7 4 7 12 9 5 5 4 6 5 5 5 7 8 7 7 7 7 7 8 7 7 7 7 8 8 8 8 6 4 3 4 6 7 8 8 8 9 9
3 35 -0 88 9 11 4 6 2 6 6 2 11 11 2 8 6 2 4 5 4 7 8 7 7 8 7 8 7 8 7 6 7 8 8 8 6 4 4 6 7 7 7 7 7 6 5 6 6
9 5 17 16 21 18 13 4 5 2 19 -8 19 -7 6 14 8 3 2 3 4 4 9 8 8 9 8 8 8 8 7 7 8 9 7 4 3 5 6 6 6 5 4 4 4 5 4 5 4
8 11 -6 19 -6 29 3 4 4 -1 7 14 14 -0 -0 12 9 4 3 2 1 4 9 6 8 8 8 8 8 7 7 8 8 6 3 3 5 5 5 5 4 3 3 3 4 4 2 1 3
4 -1 -1 -12 13 1 3 14 4 10 1 7 -6 11 9 8 11 6 3 2 2 3 9 7 7 8 8 8 8 8 8 8 7 5 4 4 5 5 4 3 2 2 2 3 2 1 2 5 3
-1 12 -2 34 -1 6 13 15 -5 11 3 10 -10 13 13 7 11 7 4 2 3 2 6 8 7 8 8 8 8 8 8 7 5 5 6 6 5 4 4 3 2 2 1 3 2 2 1 1 2
4 4 -5 -0 4 10 7 10 2 8 12 36 13 -7 5 11 11 11 6 4 5 4 5 8 7 7 7 7 8 8 7 6 5 5 5 6 5 4 4 2 2 2 2 1 2 3 3 2 3
4 41 -14 9 8 3 7 13 3 11 6 4 3 -4 7 5 11 14 4 3 5 6 5 9 7 7 7 7 8 9 6 7 5 6 6 6 5 4 3 2 2 2 3 2 3 3 3 4 5
6 42 17 -5 15 10 10 9 8 18 10 8 8 4 14 10 17 13 -3 3 5 6 5 8 8 7 7 9 10 6 8 5 6 6 6 5 5 4 3 3 3 3 3 2 3 3 3 4 5
7 3 8 4 3 17 -5 23 -1 8 -32 12 12 6 8 14 10 11 -0 4 3 6 4 7 9 7 8 8 6 8 5 6 7 6 6 5 5 5 4 4 4 3 3 3 3 5 4 6 5
-1 9 15 3 24 14 -1 12 -1 -9 9 7 10 6 6 14 6 4 2 4 4 9 6 5 9 9 7 8 7 7 6 6 6 6 6 6 6 5 5 5 4 4 4 5 5 5 5 6 8
20 3 0 10 9 3 1 1 -2 11 37 32 7 4 3 15 5 -2 3 5 7 12 7 6 8 10 9 7 7 7 6 6 6 6 6 5 5 5 5 5 5 5 6 5 5 6 6 8 14
-4 5 39 18 2 4 -16 2 20 2 -4 18 -12 6 1 8 11 -5 5 3 2 13 8 6 6 11 11 7 7 7 5 6 5 6 5 5 5 4 5 5 5 6 5 6 6 8 10 10 6
-4 14 12 0 4 14 11 7 -4 8 -17 8 27 40 6 5 12 -4 6 1 6 16 7 7 8 11 13 9 6 7 6 6 5 6 5 5 5 5 5 6 7 6 6 6 9 10 8 4 4
3 2 7 5 5 -3 6 4 17 57 2 -34 52 -12 -2 4 14 3 4 1 1 8 6 9 14 15 15 9 8 7 7 6 6 6 6 6 7 6 7 7 7 6 7 8 8 7 8 3 4
8 9 9 5 10 9 2 9 19 40 24 23 15 26 16 -1 4 5 -4 -2 1 6 8 8 12 14 14 11 9 8 9 9 11 9 9 8 8 8 7 7 8 7 6 6 6 8 8 7 7
7 8 9 5 12 4 5 -7 -8 10 5 11 41 -10 9 7 13 2 2 2 -1 7 6 7 12 11 14 13 12 12 11 8 10 11 12 10 9 8 9 8 6 5 12 7 7 8 6 6 6
9 5 9 8 3 8 14 7 13 28 -11 8 12 22 44 15 10 34 -11 16 6 5 7 10 8 8 7 6 5 5 3 1 7 10 9 9 8 8 6 6 7 13 7 4 8 11 6 6 5
3 9 6 7 11 22 5 7 3 7 24 25 24 -1 25 -7 27 -4 -1 -3 19 4 8 6 6 5 6 4 4 3 3 1 5 7 5 7 6 6 5 4 12 11 6 5 5 7 6 6 6
4 6 20 26 34 -5 1 44 7 2 5 -6 -4 4 0 -12 5 10 7 -13 7 21 11 7 5 3 4 2 4 3 3 1 6 5 3 5 4 4 0 6 12 6 6 13 8 6 5 6 7
6 -2 -16 14 7 -8 28 -5 63 7 14 1 9 5 28 1 35 12 9 7 4 17 13 7 6 4 3 2 3 4 6 3 4 4 1 3 2 5 -1 3 10 11 4 12 8 5 7 7 7
16 10 -2 11 14 33 13 6 15 27 38 18 23 16 19 15 11 52 14 8 9 3 45 9 4 0 2 2 -0 9 3 6 4 7 2 4 0 4 3 1 5 10 8 2 9 6 6 7 7
10 6 18 7 17 8 13 10 3 42 39 -5 6 9 10 13 13 37 11 11 1 9 38 9 3 -5 2 -9 4 3 9 7 6 3 -3 2 8 4 4 1 1 9 9 -0 8 8 8 7 7
8 7 -4 3 12 -15 9 13 33 0 15 -10 18 -0 0 8 12 15 26 11 -8 7 11 9 2 -1 2 1 7 6 15 12 3 3 3 10 2 7 2 1 4 8 11 7 8 8 7 8 7
14 10 8 -2 19 -5 -8 12 -11 -18 6 17 -9 6 2 4 10 11 28 -5 24 -5 14 11 8 5 3 1 12 10 11 6 9 6 12 1 6 2 5 -3 6 9 5 8 8 7 7 8 8
Height
3171 3170 3170 3170 3165 3170 3170 3175 3176 3177 3177 3177 3177 3177 3178 3177 3177 3181 3179 3180 3180 3181 3180 3181 3181 3182 3181 3181 3180 3179 3179 3179 3179 3179 3178 3178 3178 3177 3177 3177 3177 3177 3178 3178 3178 3178 3178 3177 3177
3171 3170 3167 3172 3174 3172 3173 3175 3176 3176 3176 3177 3178 3182 3178 3178 3178 3178 3179 3180 3180 3180 3182 3182 3183 3182 3182 3181 3181 3180 3179 3179 3179 3179 3178 3178 3178 3177 3177 3177 3177 3177 3178 3179 3178 3178 3178 3178 3178
3171 3173 3173 3169 3172 3171 3173 3175 3175 3176 3177 3179 3180 3179 3179 3178 3178 3179 3180 3181 3181 3182 3183 3183 3183 3182 3181 3180 3180 3180 3180 3179 3180 3179 3178 3177 3178 3178 3178 3177 3178 3178 3179 3179 3179 3179 3179 3179 3179
3172 3175 3177 3172 3171 3171 3172 3174 3175 3176 3177 3179 3181 3179 3180 3179 3179 3181 3180 3181 3182 3182 3182 3183 3183 3182 3182 3181 3180 3181 3180 3180 3180 3179 3179 3178 3179 3179 3179 3179 3179 3180 3180 3180 3180 3180 3180 3180 3180
3172 3178 3174 3173 3171 3172 3172 3174 3176 3177 3178 3179 3182 3178 3180 3179 3180 3181 3181 3181 3181 3182 3182 3182 3182 3182 3181 3181 3180 3180 3180 3180 3180 3180 3180 3180 3180 3180 3181 3181 3181 3181 3182 3182 3182 3182 3182 3181 3181
3175 3180 3175 3175 3170 3172 3173 3174 3176 3179 3179 3179 3180 3178 3179 3179 3180 3181 3181 3180 3179 3181 3181 3181 3181 3181 3181 3180 3179 3179 3179 3179 3180 3181 3181 3182 3182 3182 3182 3183 3183 3183 3184 3184 3183 3183 3183 3182 3182
3176 3178 3173 3172 3171 3172 3174 3176 3177 3179 3180 3180 3180 3178 3180 3179 3180 3180 3180 3181 3180 3180 3181 3181 3181 3181 3180 3181 3180 3180 3180 3180 3181 3182 3182 3183 3184 3184 3185 3184 3185 3185 3185 3185 3184 3184 3184 3183 3182
3178 3178 3174 3175 3171 3173 3174 3177 3178 3180 3179 3178 3180 3179 3179 3179 3180 3180 3180 3181 3181 3180 3181 3182 3181 3181 3181 3181 3181 3181 3181 3182 3182 3183 3184 3184 3185 3185 3186 3186 3186 3186 3186 3186 3186 3186 3185 3184 3182
3178 3179 3179 3178 3176 3173 3174 3176 3177 3177 3176 3177 3178 3177 3176 3177 3179 3179 3180 3181 3181 3181 3181 3181 3182 3182 3182 3182 3182 3182 3182 3183 3183 3184 3185 3185 3186 3186 3186 3187 3187 3188 3187 3188 3187 3186 3186 3185 3183
3179 3176 3177 3172 3176 3176 3174 3175 3174 3175 3176 3176 3174 3174 3175 3176 3177 3178 3180 3180 3181 3181 3181 3181 3181 3182 3182 3183 3183 3184 3184 3184 3185 3186 3186 3186 3186 3187 3187 3188 3188 3188 3188 3188 3187 3187 3186 3184 3182
3178 3177 3175 3173 3174 3174 3174 3174 3174 3174 3176 3174 3171 3173 3174 3175 3175 3176 3177 3179 3180 3180 3181 3181 3182 3182 3182 3183 3184 3185 3185 3185 3186 3186 3187 3187 3187 3188 3188 3189 3189 3189 3189 3188 3188 3187 3186 3184 3182
3177 3175 3174 3174 3172 3173 3174 3174 3174 3175 3175 3173 3170 3172 3174 3174 3174 3175 3176 3177 3179 3179 3180 3181 3181 3182 3182 3183 3184 3185 3185 3186 3187 3187 3187 3188 3188 3189 3189 3189 3189 3189 3188 3187 3187 3186 3185 3184 3182
3175 3175 3175 3173 3172 3173 3173 3173 3174 3174 3173 3170 3169 3170 3172 3174 3174 3175 3175 3176 3178 3180 3180 3180 3181 3181 3182 3182 3183 3184 3185 3186 3187 3188 3188 3189 3189 3189 3189 3189 3188 3188 3187 3187 3186 3184 3183 3180 3178
3173 3174 3174 3174 3174 3172 3173 3173 3172 3173 3169 3170 3166 3168 3169 3171 3172 3174 3173 3174 3177 3179 3180 3180 3180 3180 3181 3182 3183 3183 3185 3186 3187 3188 3188 3189 3189 3189 3189 3189 3188 3187 3187 3186 3185 3183 3181 3178 3175
3172 3173 3172 3168 3168 3169 3173 3173 3171 3167 3164 3170 3168 3165 3167 3168 3171 3172 3172 3173 3175 3177 3178 3179 3180 3180 3181 3181 3182 3183 3183 3185 3186 3187 3188 3188 3188 3188 3188 3188 3187 3186 3185 3184 3183 3180 3178 3175 3173
3171 3171 3169 3169 3167 3168 3171 3170 3164 3165 3165 3165 3164 3166 3168 3168 3169 3170 3170 3171 3173 3175 3176 3177 3179 3179 3179 3180 3181 3182 3183 3184 3185 3186 3187 3187 3188 3188 3187 3187 3186 3185 3184 3182 3180 3178 3175 3173 3171
3168 3168 3171 3170 3169 3168 3168 3166 3160 3163 3162 3162 3161 3159 3163 3167 3169 3168 3168 3169 3170 3173 3175 3176 3177 3178 3178 3179 3180 3181 3181 3182 3183 3185 3185 3186 3186 3186 3185 3185 3184 3182 3181 3179 3177 3174 3172 3170 3169
3164 3166 3168 3169 3165 3161 3160 3161 3152 3154 3157 3161 3157 3159 3154 3160 3165 3166 3167 3167 3168 3171 3173 3174 3176 3176 3177 3177 3178 3179 3179 3181 3182 3183 3184 3185 3184 3184 3183 3182 3181 3180 3177 3176 3173 3171 3168 3166 3165
3162 3164 3167 3161 3160 3161 3158 3159 3160 3150 3150 3158 3163 3151 3143 3152 3160 3162 3163 3164 3165 3169 3170 3172 3173 3174 3175 3175 3176 3177 3178 3180 3181 3182 3182 3182 3182 3182 3181 3180 3179 3177 3175 3173 3171 3168 3165 3162 3160
3161 3160 3159 3158 3158 3158 3158 3157 3157 3155 3155 3153 3150 3147 3144 3153 3154 3157 3157 3159 3162 3166 3168 3169 3171 3172 3172 3174 3175 3176 3177 3178 3179 3180 3180 3181 3180 3180 3178 3177 3176 3172 3172 3170 3168 3165 3163 3159 3155
3157 3159 3159 3158 3156 3155 3154 3153 3153 3150 3147 3148 3147 3143 3149 3143 3154 3160 3158 3157 3158 3162 3165 3167 3168 3169 3170 3172 3173 3175 3176 3177 3178 3178 3178 3178 3178 3177 3176 3175 3173 3170 3167 3166 3165 3162 3160 3157 3154
3157 3157 3157 3156 3155 3152 3152 3150 3146 3147 3145 3147 3143 3142 3145 3148 3142 3151 3155 3156 3155 3159 3162 3164 3166 3167 3169 3170 3172 3173 3174 3175 3176 3176 3176 3176 3176 3175 3174 3172 3170 3167 3166 3163 3161 3159 3156 3154 3151
3155 3155 3155 3154 3154 3152 3149 3147 3143 3143 3145 3144 3143 3145 3149 3139 3136 3134 3149 3151 3152 3155 3159 3161 3164 3165 3167 3169 3171 3172 3173 3174 3174 3174 3174 3174 3173 3172 3171 3170 3167 3165 3164 3161 3159 3157 3154 3150 3147
3153 3153 3154 3154 3153 3151 3147 3145 3142 3143 3142 3140 3141 3143 3146 3154 3149 3147 3145 3147 3148 3151 3155 3158 3161 3163 3166 3168 3170 3170 3171 3172 3172 3171 3171 3171 3171 3170 3169 3167 3164 3162 3160 3158 3156 3153 3150 3146 3143
3150 3152 3152 3150 3147 3144 3141 3140 3139 3140 3138 3140 3143 3146 3146 3148 3151 3147 3144 3143 3143 3146 3151 3155 3158 3161 3165 3166 3167 3168 3168 3168 3168 3168 3168 3168 3168 3167 3165 3164 3162 3159 3157 3155 3152 3149 3146 3142 3138
3147 3149 3150 3148 3144 3140 3139 3140 3139 3140 3138 3137 3139 3141 3141 3142 3144 3146 3139 3140 3140 3141 3147 3152 3156 3159 3162 3163 3164 3166 3165 3165 3165 3165 3164 3164 3164 3164 3162 3161 3159 3156 3154 3151 3147 3145 3141 3137 3134
3143 3143 3145 3143 3144 3142 3140 3137 3138 3136 3134 3134 3134 3136 3137 3139 3140 3141 3142 3141 3138 3137 3144 3149 3153 3155 3157 3160 3162 3161 3161 3161 3161 3161 3159 3159 3159 3160 3159 3157 3154 3152 3150 3146 3142 3140 3137 3133 3129
3139 3142 3142 3141 3144 3144 3140 3139 3137 3135 3136 3135 3134 3133 3135 3136 3137 3137 3140 3138 3137 3138 3141 3147 3149 3150 3153 3157 3157 3157 3157 3157 3157 3156 3156 3154 3155 3155 3155 3153 3151 3148 3146 3143 3139 3135 3133 3129 3125
3136 3136 3137 3138 3139 3140 3139 3137 3135 3135 3136 3135 3134 3131 3133 3135 3135 3135 3137 3135 3135 3135 3137 3142 3144 3146 3149 3152 3152 3153 3153 3152 3151 3149 3150 3151 3151 3151 3150 3148 3147 3144 3141 3138 3135 3131 3128 3124 3120
3130 3131 3132 3134 3136 3135 3134 3132 3133 3132 3134 3131 3133 3130 3131 3132 3133 3134 3134 3133 3133 3130 3133 3136 3140 3142 3146 3146 3148 3148 3146 3145 3143 3146 3147 3147 3148 3147 3146 3144 3142 3140 3137 3134 3131 3126 3123 3119 3114